Overview Statistics Trail Chart Weather Telemetry Raw packets
 

This is the latest recevied weather packets stored in our database for station/object K7SKM. If no packets are shown the sender has not sent any weather packets the latest 10 day(s).

<< 29 30 31 32 33 34 35 >>
Time Temp. Humidity Pressure Rain* Wind** Luminosity Snow
1788478174 19.44° C 52% 1014 hPa 0 mm - 96 W/m² -
1788477855 20° C 52% 1014 hPa 0 mm - 100 W/m² -
1788477555 20.56° C 52% 1014 hPa 0 mm - 103 W/m² -
1788477249 20° C 51% 1014 hPa 0 mm - 116 W/m² -
1788476944 20.56° C 52% 1013.9 hPa 0 mm - 131 W/m² -
1788476640 21.11° C 51% 1014 hPa 0 mm - 92 W/m² -
1788476336 20.56° C 53% 1014 hPa 0 mm - 105 W/m² -
1788476032 21.11° C 52% 1014.1 hPa 0 mm - 138 W/m² -
1788475728 20.56° C 53% 1014.1 hPa 0 mm - 131 W/m² -
1788475424 20.56° C 53% 1014.1 hPa 0 mm - 138 W/m² -
1788475120 20° C 53% 1014.2 hPa 0 mm - 156 W/m² -
1788474818 20.56° C 53% 1014.1 hPa 0 mm - 156 W/m² -
1788474513 20.56° C 54% 1014.3 hPa 0 mm - 176 W/m² -
1788474213 20° C 55% 1014.1 hPa 0 mm - 164 W/m² -
1788473908 20° C 57% 1014.3 hPa 0 mm - 142 W/m² -
1788473606 19.44° C 58% 1014.3 hPa 0 mm - 141 W/m² -
1788473304 19.44° C 58% 1014.3 hPa 0 mm - 147 W/m² -
1788472998 20.56° C 57% 1014.3 hPa 0 mm - 195 W/m² -
1788472691 20.56° C 54% 1014.3 hPa 0 mm - 200 W/m² -
1788472388 20.56° C 50% 1014.2 hPa 0 mm - 197 W/m² -
1788472086 20.56° C 53% 1014.2 hPa 0 mm - 194 W/m² -
1788471812 20° C 50% 1014.2 hPa 0 mm - 198 W/m² -
1788471476 20° C 50% 1014.4 hPa 0 mm - 208 W/m² -
1788471172 19.44° C 54% 1014.2 hPa 0 mm - 203 W/m² -
1788470868 18.89° C 58% 1014.3 hPa 0 mm - 192 W/m² -

* Rain latest hour (hover to see other rain measurements)
** Current wind speed in m/s (hover to see current wind gust speed)